Search for airport 
image banner adimage banner adimage banner ad
image banner ad

FQIA - Inhaca

Located in , Mozambique

ICAO - FQIA, IATA - IHC

Data provided by Airmate  

General information

Coordinates: S25°59'49" E32°55'45"
Elevation is 8 feet MSL.
 
View others Airports in Maputo Province

Operational data

Special qualification required
Current time UTC:
Current local time:
Weather at : FQMA - Maputo / International ( 37 km )
METAR: FQMA 242300Z 24010KT 9999 FEW020 13/09 Q1035 NOSIG
TAF: TAF FQMA 242200Z 2500/2606 24010KT 9999 FEW020 TX22/2513Z TN11/2503Z BECMG 2518/2520 14010KT BECMG 2600/2602 20006KT
View NOTAMs / SUP AIP / TFR affecting this airport [VIEW]
Communications frequencies: [VIEW]

Runways:

RWY identifierQFULength (ft)Width (ft)SurfaceLDA (ft)
10246198
28246198
18295398
36295398

Airport contact information

Address: Mozambique

Satellite view of FQIA